United States

Ashburn, VA Weather Archive

Below you will find the last 24 hours of weather readings for Ashburn VA

Ashburn VA Today's Weather Data

Observed at: Ashburn, VA

Hour Observerd Temp Pressure Visibility Humidity Dew Point Wind
11:00 Partly Cloudy and Breezy 41°F (5°C) 101.49 kPa 1.24 miles 59% 27.8°F (-2.3°C) 4 mph NE 51°11 mph
10:00 Fair and Breezy 40°F (4.4°C) 101.46 kPa 10 miles 60% 27.2°F (-2.6°C) 4 mph NE 53°8 mph
09:00 Fair and Breezy 38°F (3.3°C) 101.39 kPa 10 miles 65% 27.3°F (-2.6°C) 4 mph ENE 59°9 mph
08:00 Overcast 37°F (2.8°C) 101.29 kPa 10 miles 70% 28.1°F (-2.1°C) 2 mph ENE 67°7 mph
07:00 Overcast 37°F (2.8°C) 101.19 kPa 10 miles 70% 28.1°F (-2.1°C) 1 mph ENE 61°5 mph
06:00 Mostly Cloudy 38°F (3.3°C) 101.08 kPa 10 miles 70% 29.1°F (-1.6°C) 3 mph ENE 62°8 mph
05:00 Fair 38°F (3.3°C) 100.88 kPa 10 miles 71% 29.4°F (-1.4°C) 3 mph ENE 67°7 mph
04:00 Mostly Cloudy 38°F (3.3°C) 100.78 kPa 10 miles 75% 30.8°F (-0.7°C) 3 mph E 79°9 mph
03:00 Fair and Breezy 38°F (3.3°C) 100.64 kPa 10 miles 78% 31.8°F (-0.1°C) 3 mph ENE 61°7 mph
02:00 Fair and Breezy 38°F (3.3°C) 100.64 kPa 10 miles 86% 34.2°F (1.2°C) 1 mph E 90°3 mph
01:00 Partly Cloudy and Breezy 39°F (3.9°C) 100.51 kPa 10 miles 82% 34°F (1.1°C) 1 mph SE 135°4 mph
00:00 Mostly Cloudy 40°F (4.4°C) 100.47 kPa 10 miles 79% 34°F (1.1°C) 1 mph E 90°3 mph
23:00 Overcast 41°F (5°C) 100.44 kPa 10 miles 70% 32°F (-0°C) 1 mph ENE 57°3 mph
22:00 Overcast 41°F (5°C) 100.44 kPa 10 miles 68% 31.3°F (-0.4°C) 1 mph E 90°2 mph
21:00 Mostly Cloudy 42°F (5.6°C) 100.37 kPa 10 miles 66% 31.5°F (-0.3°C) 1 mph ENE 71°2 mph
20:00 Overcast 42°F (5.6°C) 100.34 kPa 10 miles 65% 31.1°F (-0.5°C) 1 mph ENE 60°4 mph
19:00 Overcast 43°F (6.1°C) 100.34 kPa 10 miles 63% 31.3°F (-0.4°C) 2 mph ENE 60°5 mph
18:00 Fair 45°F (7.2°C) 100.3 kPa 10 miles 60% 32°F (-0°C) 2 mph ENE 57°6 mph
17:00 Partly Cloudy 46°F (7.8°C) 100.27 kPa 10 miles 65% 34.9°F (1.6°C) 2 mph ENE 65°5 mph
16:00 Partly Cloudy 47°F (8.3°C) 100.1 kPa 10 miles 71% 38.1°F (3.4°C) 1 mph E 90°
15:00 Overcast 48°F (8.9°C) 99.97 kPa 10 miles 69% 38.3°F (3.5°C) 1 mph S 182°2 mph
14:00 Overcast 48°F (8.9°C) 99.97 kPa 10 miles 74% 40.1°F (4.5°C) 1 mph SSW 207°4 mph
13:00 Overcast 45°F (7.2°C) 99.97 kPa 10 miles 100% 45°F (7.2°C) 1 mph SSW 195°4 mph
12:00 Partly Cloudy 40°F (4.4°C) 100.03 kPa 10 miles 100% 40°F (4.4°C) 1 mph SSW 212°4 mph